Vertical_Velocity
-2 -2 1 -0 1 -1 -1 -3 -6 -5 -4 -4 -1 -1 -1 1 1 -1 -1 3 -0 -1
-2 -3 -1 -1 0 -2 1 -2 -3 -2 -4 -4 -4 -2 -1 1 1 -1 1 0 0 -2
-2 -3 -2 -1 -2 -2 -2 -0 0 -2 -1 -4 -3 -2 -2 -0 -1 -2 3 0 -3 -1
-1 -2 -2 -2 -1 -2 -3 -1 0 -0 -2 0 -1 -2 -1 -2 0 -1 -2 0 0 0
0 -2 -2 -2 -1 -2 -3 -0 0 -1 0 -0 0 -1 -2 -1 -1 -0 -0 -0 -2 2
-1 -2 -2 -2 -3 -2 -2 -1 -2 -0 -1 -0 -0 -1 -4 -0 -2 -4 -2 -2 -0 2
-0 -2 -2 -3 -3 -1 -0 -1 -2 1 0 -1 -4 -3 -3 -4 -2 -2 -2 -2 -2 -1
-1 -3 -2 -2 -2 -0 1 -1 -1 0 -1 -1 -2 -3 -6 -2 2 -1 -2 -2 -1 -1
-1 -2 -2 -2 0 1 0 -0 1 -1 0 0 -2 -6 1 -16 -9 -3 -4 -2 -1 -2
0 -2 -1 -0 1 0 0 0 0 -0 -2 1 -2 -3 -4 -9 -7 -6 -4 -2 -2 -0
-1 -2 0 1 1 1 1 1 -1 -0 1 -2 -1 -1 -3 -6 -6 -5 -4 -4 -3 -2
0 1 0 1 1 1 1 -0 -1 1 -2 -2 0 -2 -3 -4 -4 -2 -1 -2 -2 -2
1 2 1 1 1 1 0 -2 3 2 -1 -2 1 -1 -0 -0 -1 -2 -1 0 -1 -3
2 2 1 1 2 1 -1 0 2 1 1 -1 2 -1 -1 -2 -2 -1 -1 -1 1 -0
Height
5696 5695 5694 5693 5692 5691 5689 5686 5683 5680 5677 5675 5673 5671 5670 5668 5665 5662 5659 5655 5652 5649
5685 5684 5684 5682 5681 5679 5678 5675 5672 5669 5666 5664 5661 5659 5657 5653 5649 5645 5640 5636 5633 5630
5675 5674 5672 5671 5669 5668 5666 5663 5661 5658 5656 5653 5650 5647 5642 5637 5632 5627 5623 5619 5615 5612
5664 5662 5661 5660 5659 5657 5654 5652 5649 5647 5645 5642 5637 5633 5628 5623 5618 5613 5608 5604 5600 5597
5653 5651 5649 5647 5646 5644 5642 5641 5639 5637 5634 5629 5625 5619 5615 5609 5605 5601 5596 5592 5587 5584
5641 5640 5637 5636 5635 5633 5631 5630 5628 5626 5623 5618 5614 5609 5604 5600 5595 5590 5585 5580 5575 5573
5629 5627 5626 5625 5624 5622 5622 5621 5619 5616 5612 5609 5605 5601 5596 5590 5584 5579 5574 5570 5566 5563
5616 5616 5616 5615 5614 5613 5612 5611 5609 5606 5604 5601 5598 5594 5587 5579 5573 5570 5566 5562 5560 5558
5606 5606 5606 5605 5604 5604 5604 5602 5600 5598 5596 5594 5591 5587 5581 5575 5569 5566 5562 5558 5556 5555
5595 5596 5596 5595 5596 5596 5595 5593 5591 5590 5589 5587 5585 5582 5577 5574 5569 5566 5563 5559 5557 5554
5586 5587 5587 5587 5587 5587 5586 5585 5584 5584 5582 5581 5579 5576 5573 5571 5568 5565 5564 5561 5558 5555
5576 5577 5578 5579 5579 5579 5578 5577 5577 5577 5577 5575 5573 5572 5570 5567 5566 5564 5562 5560 5558 5555
5568 5569 5571 5571 5572 5571 5571 5571 5572 5572 5572 5570 5569 5568 5565 5564 5563 5561 5559 5558 5555 5553
5560 5562 5564 5565 5565 5565 5565 5566 5567 5567 5567 5565 5564 5563 5561 5560 5559 5557 5555 5554 5552 5550